Location: Bishop�s Knoyle
(51.0728°N, 2.1714°W)
Time: 05:29:42
(UTC+00:00)

CENTAUR R/B - Pass Details

Date: 25 January 2021
Orbit: 742 x 1446 km, 63.5° (Epoch: 02 March)

Event Time Altitude Azimuth Distance (km) Brightness Sun altitude
Rises 05:05:27 0° 172° (S) 3,386 5.4 -26.4°
Reaches altitude 10° 05:08:17 10° 157° (SSE) 2,548 4.9 -25.9°
Maximum altitude 05:12:41 22° 108° (ESE) 1,988 4.8 -25.3°
Drops below altitude 10° 05:17:38 10° 61° (ENE) 2,909 5.8 -24.5°
Sets 05:21:07 0° 48° (NE) 4,006 6.4 -23.9°
